Regional Weather Roundup
Issued by NWS Sterling, VA

Home | Current Version | Previous Version | Graphics & Text | Print | Product List | Glossary On
Versions: 1 2 3 4 5 6 7 8 9 10 11 12 13 14 15 16 17 18 19 20 21 22 23 24 25 26 27
000
ASUS41 KLWX 280111
RWRLWX

REGIONAL WEATHER ROUNDUP
NATIONAL WEATHER SERVICE BALTIMORE MD/WASHINGTON DC
900 PM EDT THU APR 27 2017

Note: "FAIR" indicates few or no clouds below 12,000 feet
with no significant weather and/or obstructions to visibility.
 TC=TEMPERATURE CELSIUS

 * =Non NWS site. Station does not report precipitation (e.g. rain,
    snow, etc.), thunder, or fog.

DCZ001-MDZ009-015-VAZ040>042-051-053>054-280200-
WASHINGTON METRO

CITY           SKY/WX    TMP DP  RH WIND       PRES   REMARKS
WASHINGTON NAT CLOUDY    77  59  53 S12       29.79R
DULLES         CLOUDY    75  57  53 S9        29.78R
ANDREWS AFB    CLOUDY    74  59  59 S9        29.79R
FT BELVOIR     CLOUDY    76  58  53 S7        29.79R
QUANTICO       MOCLDY    73  63  70 SW8       29.80R
COLLEGE PARK*  CLOUDY    77  57  50 S7        29.79R
LEESBURG*      CLOUDY    77  61  57 S6        29.78S
MANASSAS*        N/A     75  59  57 S8        29.80R

$$

MDZ006>007-011-014-280200-
BALTIMORE METRO

CITY           SKY/WX    TMP DP  RH WIND       PRES   REMARKS
BWI AIRPORT    MOCLDY    71  60  68 S5        29.79R
MD SCIENCE CTR   N/A     74  58  57 MISG      29.79R
MARTIN STATE   MOCLDY    72  64  78 SE13      29.81R
ANNAPOLIS      MOCLDY    69  62  78 S14       29.80R
FORT MEADE*    CLOUDY    66  59  77 SE3       29.82R

$$

MDZ012-015-019>023-280200-
MARYLAND EASTERN SHORE

CITY           SKY/WX    TMP DP  RH WIND       PRES   REMARKS
OCEAN CITY     CLEAR     63  61  93 SW12      29.88R
SALISBURY      CLEAR     68  64  87 S8        29.85R
BAY BRIDGE AP* CLOUDY    72  63  73 S14       29.80R
CAMBRIDGE*       N/A     72  64  78 S9G17     29.82S
EASTON*        PTCLDY    73  63  68 S13G18    29.85R

$$

MDZ017>025-280200-
SOUTHERN MARYLAND

CITY           SKY/WX    TMP DP  RH WIND       PRES   REMARKS
PATUXENT RIVER MOCLDY    66  64  93 SE5       29.81S
ST INIGOES     PTCLDY    72  61  68 S8        29.81S
LEONARDTOWN*   MOCLDY    73  59  60 S6        29.83S

$$

MDZ003>005-280200-
NORTH CENTRAL MARYLAND

CITY           SKY/WX    TMP DP  RH WIND       PRES   REMARKS
FREDERICK*     NOT AVBL
HAGERSTOWN APT CLOUDY    76  58  53 S12       29.76R
WESTMINSTER*   CLOUDY    73  63  68 SE7       29.79R

$$

MDZ501>502-280200-
WESTERN MARYLAND

CITY           SKY/WX    TMP DP  RH WIND       PRES   REMARKS
OAKLAND*       CLEAR     55  55 100 S12       29.84S
CUMBERLAND*    CLOUDY    64  64 100 CALM      29.83S

$$

VAZ025>031-280200-
SHENANDOAH VALLEY

CITY           SKY/WX    TMP DP  RH WIND       PRES   REMARKS
WINCHESTER*    MOCLDY    72  55  56 SW6       29.79R
FRONT ROYAL*   CLOUDY    73  57  56 CALM      29.79R
LURAY*         MOCLDY    73  57  56 SW9       29.81R
NEW MARKET*    CLOUDY    72  58  61 SW9G17    29.80R
STAUNTON*      CLOUDY    65  61  86 SW8G17    29.87R
WAYNESBORO*    CLOUDY    65  62  91 CALM      29.87R

$$

WVZ021-048>050-054>055-280200-
EASTERN WEST VIRGINIA PANHANDLE

CITY           SKY/WX    TMP DP  RH WIND       PRES   REMARKS
MARTINSBURG    MOCLDY    75  57  53 S7        29.76R
PETERSBURG*    CLOUDY    65  64  98 CALM      29.81R

$$

VAZ036>039-050-280200-
CENTRAL FOOTHILLS

CITY           SKY/WX    TMP DP  RH WIND       PRES   REMARKS
CHARLOTTESVILL HVY RAIN  69  61  75 SW7       29.84R
CULPEPER*      CLOUDY    75  60  57 S6        29.82R
ORANGE*        CLOUDY    73  57  56 SW12G17   29.82R
GORDONSVILLE*  CLOUDY    75  59  55 SW13G20   29.83R
WARRENTON*     CLOUDY    76  55  47 S7        29.80R

$$

VAZ055>057-280200-
NORTH AND CENTRAL PIEDMONT

CITY           SKY/WX    TMP DP  RH WIND       PRES   REMARKS
FREDERICKSBRG* CLOUDY    77  60  56 S10G17    29.80R
STAFFORD*      PTCLDY    75  58  55 S7        29.83R

$$

NCZ024-NYZ072-PAZ021-071-VAZ022-071-280200-
OTHER REGIONAL OBSERVATIONS

CITY           SKY/WX    TMP DP  RH WIND       PRES   REMARKS
NEW YORK CITY  CLOUDY    59  58  96 VRB7      29.91R FOG
PHILADELPHIA   MOCLDY    70  61  73 SE8       29.82R
PITTSBURGH     LGT RAIN  58  55  90 CALM      29.74R
ROANOKE        LGT RAIN  63  62  97 W7        29.91R
RICHMOND       CLOUDY    73  60  63 S8        29.85R
RALEIGH        CLOUDY    74  62  66 S6        29.88S

$$

ANZ530>537-280200-
MARINE OBSERVATIONS

STATION/POSITION TIME  TEMP    WIND        PRES
                       AIR SEA DIR/SP/G
                 (UTC) (F)     (DEG/KT/KT) (MB)
THOMAS PT LIGHT  0000   69 58  170/ 18/ 19   N/A
BALT KEY BRIDGE  0030   71     150/ 15/ 16 1008.2R
COVE POINT       0030   64     180/ 15/ 17 1010.2R
LEWISETTA        0030   76 65  210/  7/  9 1009.5F
SOLOMONS ISLAND  0030   66 61  130/  6/  8   N/A
PINEY POINT      0030          200/  7/  8   N/A

$$





USA.gov is the U.S. government's official web portal to all federal, state and local government web resources and services.